Year,Month,Day,Hour,Minute,Value (Times are PST for temperature in C)
2008,05,23,00,00,9.00
2008,05,23,00,01,9.00
2008,05,23,00,02,8.90
2008,05,23,00,03,8.80
2008,05,23,00,04,8.80
2008,05,23,00,05,8.80
2008,05,23,00,06,8.80
2008,05,23,00,07,8.80
2008,05,23,00,08,8.70
2008,05,23,00,09,8.70
2008,05,23,00,10,8.60
2008,05,23,00,11,8.60
2008,05,23,00,12,8.50
2008,05,23,00,13,8.50
2008,05,23,00,14,8.40
2008,05,23,00,15,8.40
2008,05,23,00,16,8.40
2008,05,23,00,17,8.30
2008,05,23,00,18,8.30
2008,05,23,00,19,8.30
2008,05,23,00,20,8.30
2008,05,23,00,21,8.30
2008,05,23,00,22,8.30
2008,05,23,00,23,8.30
2008,05,23,00,24,8.30
2008,05,23,00,25,8.20
2008,05,23,00,26,8.20
2008,05,23,00,27,8.20
2008,05,23,00,28,8.20
2008,05,23,00,29,8.20
2008,05,23,00,30,8.20
2008,05,23,00,31,8.20
2008,05,23,00,32,8.20
2008,05,23,00,33,8.20
2008,05,23,00,34,8.20
2008,05,23,00,35,8.20
2008,05,23,00,36,8.20
2008,05,23,00,37,8.20
2008,05,23,00,38,8.10
2008,05,23,00,39,8.10
2008,05,23,00,40,8.10
2008,05,23,00,41,8.10
2008,05,23,00,42,8.10
2008,05,23,00,43,8.00
2008,05,23,00,44,8.00
2008,05,23,00,45,8.00
2008,05,23,00,46,8.00
2008,05,23,00,47,7.90
2008,05,23,00,48,7.90
2008,05,23,00,49,7.90
2008,05,23,00,50,7.90
2008,05,23,00,51,7.90
2008,05,23,00,52,7.80
2008,05,23,00,53,7.80
2008,05,23,00,54,7.80
2008,05,23,00,55,7.80
2008,05,23,00,56,7.80
2008,05,23,00,57,7.80
2008,05,23,00,58,7.80
2008,05,23,00,59,7.80
2008,05,23,01,00,7.70
2008,05,23,01,01,7.70
2008,05,23,01,02,7.70
2008,05,23,01,03,7.70
2008,05,23,01,04,7.70
2008,05,23,01,05,7.70
2008,05,23,01,06,7.70
2008,05,23,01,07,7.70
2008,05,23,01,08,7.70
2008,05,23,01,09,7.70
2008,05,23,01,10,7.60
2008,05,23,01,11,7.60
2008,05,23,01,12,7.60
2008,05,23,01,13,7.60
2008,05,23,01,14,7.60
2008,05,23,01,15,7.60
2008,05,23,01,16,7.60
2008,05,23,01,17,7.50
2008,05,23,01,18,7.50
2008,05,23,01,19,7.40
2008,05,23,01,20,7.40
2008,05,23,01,21,7.40
2008,05,23,01,22,7.40
2008,05,23,01,23,7.40
2008,05,23,01,24,7.40
2008,05,23,01,25,7.40
2008,05,23,01,26,7.40
2008,05,23,01,27,7.30
2008,05,23,01,28,7.30
2008,05,23,01,29,7.30
2008,05,23,01,30,7.30
2008,05,23,01,31,7.30
2008,05,23,01,32,7.30
2008,05,23,01,33,7.20
2008,05,23,01,34,7.20
2008,05,23,01,35,7.20
2008,05,23,01,36,7.20
2008,05,23,01,37,7.20
2008,05,23,01,38,7.20
2008,05,23,01,39,7.20
2008,05,23,01,40,7.20
2008,05,23,01,41,7.10
2008,05,23,01,42,7.10
2008,05,23,01,43,7.10
2008,05,23,01,44,7.20
2008,05,23,01,45,7.20
2008,05,23,01,46,7.20
2008,05,23,01,47,7.20
2008,05,23,01,48,7.10
2008,05,23,01,49,7.10
2008,05,23,01,50,7.10
2008,05,23,01,51,7.10
2008,05,23,01,52,7.10
2008,05,23,01,53,7.10
2008,05,23,01,54,7.10
2008,05,23,01,55,7.10
2008,05,23,01,56,7.10
2008,05,23,01,57,7.10
2008,05,23,01,58,7.10
2008,05,23,01,59,7.10
2008,05,23,02,00,7.10
2008,05,23,02,01,7.10
2008,05,23,02,02,7.10
2008,05,23,02,03,7.10
2008,05,23,02,04,7.10
2008,05,23,02,05,7.00
2008,05,23,02,06,7.00
2008,05,23,02,07,7.00
2008,05,23,02,08,7.00
2008,05,23,02,09,7.00
2008,05,23,02,10,7.00
2008,05,23,02,11,7.00
2008,05,23,02,12,7.00
2008,05,23,02,13,7.00
2008,05,23,02,14,7.00
2008,05,23,02,15,7.00
2008,05,23,02,16,7.00
2008,05,23,02,17,7.00
2008,05,23,02,18,6.90
2008,05,23,02,19,6.90
2008,05,23,02,20,6.90
2008,05,23,02,21,6.90
2008,05,23,02,22,6.90
2008,05,23,02,23,6.80
2008,05,23,02,24,6.80
2008,05,23,02,25,6.80
2008,05,23,02,26,6.80
2008,05,23,02,27,6.80
2008,05,23,02,28,6.80
2008,05,23,02,29,6.80
2008,05,23,02,30,6.80
2008,05,23,02,31,6.80
2008,05,23,02,32,6.70
2008,05,23,02,33,6.70
2008,05,23,02,34,6.70
2008,05,23,02,35,6.70
2008,05,23,02,36,6.70
2008,05,23,02,37,6.70
2008,05,23,02,38,6.70
2008,05,23,02,39,6.70
2008,05,23,02,40,6.60
2008,05,23,02,41,6.60
2008,05,23,02,42,6.60
2008,05,23,02,43,6.60
2008,05,23,02,44,6.60
2008,05,23,02,45,6.60
2008,05,23,02,46,6.60
2008,05,23,02,47,6.60
2008,05,23,02,48,6.50
2008,05,23,02,49,6.50
2008,05,23,02,50,6.50
2008,05,23,02,51,6.40
2008,05,23,02,52,6.40
2008,05,23,02,53,6.40
2008,05,23,02,54,6.40
2008,05,23,02,55,6.40
2008,05,23,02,56,6.40
2008,05,23,02,57,6.40
2008,05,23,02,58,6.40
2008,05,23,02,59,6.40
2008,05,23,03,00,6.30
2008,05,23,03,01,6.30
2008,05,23,03,02,6.30
2008,05,23,03,03,6.30
2008,05,23,03,04,6.30
2008,05,23,03,05,6.20
2008,05,23,03,06,6.20
2008,05,23,03,07,6.20
2008,05,23,03,08,6.20
2008,05,23,03,09,6.20
2008,05,23,03,10,6.20
2008,05,23,03,11,6.20
2008,05,23,03,12,6.20
2008,05,23,03,13,6.20
2008,05,23,03,14,6.20
2008,05,23,03,15,6.20
2008,05,23,03,16,6.20
2008,05,23,03,17,6.20
2008,05,23,03,18,6.20
2008,05,23,03,19,6.20
2008,05,23,03,20,6.20
2008,05,23,03,21,6.20
2008,05,23,03,22,6.20
2008,05,23,03,23,6.20
2008,05,23,03,24,6.20
2008,05,23,03,25,6.20
2008,05,23,03,26,6.10
2008,05,23,03,27,6.10
2008,05,23,03,28,6.10
2008,05,23,03,29,6.10
2008,05,23,03,30,6.00
2008,05,23,03,31,6.00
2008,05,23,03,32,6.00
2008,05,23,03,33,6.00
2008,05,23,03,34,6.00
2008,05,23,03,35,6.00
2008,05,23,03,36,6.00
2008,05,23,03,37,5.90
2008,05,23,03,38,5.90
2008,05,23,03,39,5.90
2008,05,23,03,40,5.90
2008,05,23,03,41,5.90
2008,05,23,03,42,5.90
2008,05,23,03,43,5.90
2008,05,23,03,44,5.90
2008,05,23,03,45,5.90
2008,05,23,03,46,5.90
2008,05,23,03,47,5.90
2008,05,23,03,48,5.90
2008,05,23,03,49,5.90
2008,05,23,03,50,5.90
2008,05,23,03,51,5.80
2008,05,23,03,52,5.80
2008,05,23,03,53,5.80
2008,05,23,03,54,5.80
2008,05,23,03,55,5.70
2008,05,23,03,56,5.70
2008,05,23,03,57,5.70
2008,05,23,03,58,5.70
2008,05,23,03,59,5.70
2008,05,23,04,00,5.70
2008,05,23,04,01,5.70
2008,05,23,04,02,5.60
2008,05,23,04,03,5.60
2008,05,23,04,04,5.60
2008,05,23,04,05,5.60
2008,05,23,04,06,5.60
2008,05,23,04,07,5.60
2008,05,23,04,08,5.60
2008,05,23,04,09,5.60
2008,05,23,04,10,5.60
2008,05,23,04,11,5.60
2008,05,23,04,12,5.60
2008,05,23,04,13,5.60
2008,05,23,04,14,5.60
2008,05,23,04,15,5.60
2008,05,23,04,16,5.60
2008,05,23,04,17,5.50
2008,05,23,04,18,5.50
2008,05,23,04,19,5.50
2008,05,23,04,20,5.40
2008,05,23,04,21,5.40
2008,05,23,04,22,5.40
2008,05,23,04,23,5.40
2008,05,23,04,24,5.40
2008,05,23,04,25,5.40
2008,05,23,04,26,5.40
2008,05,23,04,27,5.30
2008,05,23,04,28,5.30
2008,05,23,04,29,5.30
2008,05,23,04,30,5.30
2008,05,23,04,31,5.30
2008,05,23,04,32,5.30
2008,05,23,04,33,5.30
2008,05,23,04,34,5.40
2008,05,23,04,35,5.40
2008,05,23,04,36,5.40
2008,05,23,04,37,5.30
2008,05,23,04,38,5.30
2008,05,23,04,39,5.30
2008,05,23,04,40,5.30
2008,05,23,04,41,5.30
2008,05,23,04,42,5.30
2008,05,23,04,43,5.30
2008,05,23,04,44,5.30
2008,05,23,04,45,5.30
2008,05,23,04,46,5.30
2008,05,23,04,47,5.30
2008,05,23,04,48,5.30
2008,05,23,04,49,5.30
2008,05,23,04,50,5.30
2008,05,23,04,51,5.30
2008,05,23,04,52,5.30
2008,05,23,04,53,5.30
2008,05,23,04,54,5.20
2008,05,23,04,55,5.20
2008,05,23,04,56,5.20
2008,05,23,04,57,5.20
2008,05,23,04,58,5.10
2008,05,23,04,59,5.10
2008,05,23,05,00,5.10
2008,05,23,05,01,5.10
2008,05,23,05,02,5.10
2008,05,23,05,03,5.20
2008,05,23,05,04,5.10
2008,05,23,05,05,5.20
2008,05,23,05,06,5.10
2008,05,23,05,07,5.10
2008,05,23,05,08,5.10
2008,05,23,05,09,5.10
2008,05,23,05,10,5.10
2008,05,23,05,11,5.10
2008,05,23,05,12,5.10
2008,05,23,05,13,5.10
2008,05,23,05,14,5.10
2008,05,23,05,15,5.10
2008,05,23,05,16,5.10
2008,05,23,05,17,5.10
2008,05,23,05,18,5.10
2008,05,23,05,19,5.00
2008,05,23,05,20,5.00
2008,05,23,05,21,5.00
2008,05,23,05,22,5.00
2008,05,23,05,23,4.90
2008,05,23,05,24,4.90
2008,05,23,05,25,4.90
2008,05,23,05,26,4.90
2008,05,23,05,27,4.90
2008,05,23,05,28,4.90
2008,05,23,05,29,4.90
2008,05,23,05,30,4.90
2008,05,23,05,31,4.90
2008,05,23,05,32,4.90
2008,05,23,05,33,4.90
2008,05,23,05,34,4.90
2008,05,23,05,35,4.90
2008,05,23,05,36,4.90
2008,05,23,05,37,4.90
2008,05,23,05,38,4.90
2008,05,23,05,39,4.90
2008,05,23,05,40,4.90
2008,05,23,05,41,4.90
2008,05,23,05,42,4.90
2008,05,23,05,43,4.90
2008,05,23,05,44,4.90
2008,05,23,05,45,4.90
2008,05,23,05,46,4.90
2008,05,23,05,47,4.90
2008,05,23,05,48,5.00
2008,05,23,05,49,5.10
2008,05,23,05,50,5.10
2008,05,23,05,51,5.20
2008,05,23,05,52,5.20
2008,05,23,05,53,5.10
2008,05,23,05,54,5.10
2008,05,23,05,55,5.10
2008,05,23,05,56,5.10
2008,05,23,05,57,5.10
2008,05,23,05,58,5.10
2008,05,23,05,59,5.10
2008,05,23,06,00,5.10
2008,05,23,06,01,5.20
2008,05,23,06,02,5.20
2008,05,23,06,03,5.20
2008,05,23,06,04,5.10
2008,05,23,06,05,5.10
2008,05,23,06,06,5.10
2008,05,23,06,07,5.10
2008,05,23,06,08,5.20
2008,05,23,06,09,5.20
2008,05,23,06,10,5.20
2008,05,23,06,11,5.20
2008,05,23,06,12,5.20
2008,05,23,06,13,5.20
2008,05,23,06,14,5.20
2008,05,23,06,15,5.30
2008,05,23,06,16,5.30
2008,05,23,06,17,5.30
2008,05,23,06,18,5.40
2008,05,23,06,19,5.40
2008,05,23,06,20,5.40
2008,05,23,06,21,5.40
2008,05,23,06,22,5.50
2008,05,23,06,23,5.50
2008,05,23,06,24,5.60
2008,05,23,06,25,5.70
2008,05,23,06,26,5.70
2008,05,23,06,27,5.70
2008,05,23,06,28,5.80
2008,05,23,06,29,5.80
2008,05,23,06,30,5.90
2008,05,23,06,31,5.90
2008,05,23,06,32,6.00
2008,05,23,06,33,6.10
2008,05,23,06,34,6.20
2008,05,23,06,35,6.20
2008,05,23,06,36,6.30
2008,05,23,06,37,6.40
2008,05,23,06,38,6.40
2008,05,23,06,39,6.50
2008,05,23,06,40,6.60
2008,05,23,06,41,6.70
2008,05,23,06,42,6.70
2008,05,23,06,43,6.70
2008,05,23,06,44,6.80
2008,05,23,06,45,6.80
2008,05,23,06,46,6.80
2008,05,23,06,47,6.80
2008,05,23,06,48,6.80
2008,05,23,06,49,6.90
2008,05,23,06,50,6.90
2008,05,23,06,51,6.90
2008,05,23,06,52,6.90
2008,05,23,06,53,7.00
2008,05,23,06,54,7.00
2008,05,23,06,55,7.00
2008,05,23,06,56,7.00
2008,05,23,06,57,7.10
2008,05,23,06,58,7.10
2008,05,23,06,59,7.20
2008,05,23,07,00,7.20
2008,05,23,07,01,7.20
2008,05,23,07,02,7.20
2008,05,23,07,03,7.20
2008,05,23,07,04,7.30
2008,05,23,07,05,7.30
2008,05,23,07,06,7.40
2008,05,23,07,07,7.40
2008,05,23,07,08,7.50
2008,05,23,07,09,7.60
2008,05,23,07,10,7.70
2008,05,23,07,11,7.70
2008,05,23,07,12,7.80
2008,05,23,07,13,7.90
2008,05,23,07,14,8.00
2008,05,23,07,15,8.10
2008,05,23,07,16,8.20
2008,05,23,07,17,8.20
2008,05,23,07,18,8.30
2008,05,23,07,19,8.30
2008,05,23,07,20,8.40
2008,05,23,07,21,8.40
2008,05,23,07,22,8.40
2008,05,23,07,23,8.50
2008,05,23,07,24,8.50
2008,05,23,07,25,8.60
2008,05,23,07,26,8.60
2008,05,23,07,27,8.70
2008,05,23,07,28,8.80
2008,05,23,07,29,8.80
2008,05,23,07,30,8.80
2008,05,23,07,31,8.90
2008,05,23,07,32,8.90
2008,05,23,07,33,9.00
2008,05,23,07,34,9.00
2008,05,23,07,35,9.10
2008,05,23,07,36,9.10
2008,05,23,07,37,9.10
2008,05,23,07,38,9.20
2008,05,23,07,39,9.20
2008,05,23,07,40,9.20
2008,05,23,07,41,9.30
2008,05,23,07,42,9.30
2008,05,23,07,43,9.30
2008,05,23,07,44,9.40
2008,05,23,07,45,9.40
2008,05,23,07,46,9.40
2008,05,23,07,47,9.50
2008,05,23,07,48,9.60
2008,05,23,07,49,9.60
2008,05,23,07,50,9.70
2008,05,23,07,51,9.80
2008,05,23,07,52,10.00
2008,05,23,07,53,10.10
2008,05,23,07,54,10.20
2008,05,23,07,55,10.30
2008,05,23,07,56,10.40
2008,05,23,07,57,10.50
2008,05,23,07,58,10.60
2008,05,23,07,59,10.70
2008,05,23,08,00,10.80
2008,05,23,08,01,10.80
2008,05,23,08,02,10.80
2008,05,23,08,03,10.80
2008,05,23,08,04,10.80
2008,05,23,08,05,10.80
2008,05,23,08,06,10.90
2008,05,23,08,07,10.90
2008,05,23,08,08,10.90
2008,05,23,08,09,11.00
2008,05,23,08,10,11.00
2008,05,23,08,11,11.10
2008,05,23,08,12,11.10
2008,05,23,08,13,11.10
2008,05,23,08,14,11.20
2008,05,23,08,15,11.20
2008,05,23,08,16,11.20
2008,05,23,08,17,11.30
2008,05,23,08,18,11.30
2008,05,23,08,19,11.30
2008,05,23,08,20,11.30
2008,05,23,08,21,11.40
2008,05,23,08,22,11.40
2008,05,23,08,23,11.40
2008,05,23,08,24,11.50
2008,05,23,08,25,11.50
2008,05,23,08,26,11.50
2008,05,23,08,27,11.60
2008,05,23,08,28,11.60
2008,05,23,08,29,11.70
2008,05,23,08,30,11.80
2008,05,23,08,31,11.80
2008,05,23,08,32,11.80
2008,05,23,08,33,11.80
2008,05,23,08,34,11.90
2008,05,23,08,35,11.90
2008,05,23,08,36,12.00
2008,05,23,08,37,12.10
2008,05,23,08,38,12.10
2008,05,23,08,39,12.10
2008,05,23,08,40,12.20
2008,05,23,08,41,12.30
2008,05,23,08,42,12.30
2008,05,23,08,43,12.30
2008,05,23,08,44,12.40
2008,05,23,08,45,12.40
2008,05,23,08,46,12.50
2008,05,23,08,47,12.60
2008,05,23,08,48,12.70
2008,05,23,08,49,12.70
2008,05,23,08,50,12.80
2008,05,23,08,51,12.80
2008,05,23,08,52,12.80
2008,05,23,08,53,12.70
2008,05,23,08,54,12.70
2008,05,23,08,55,12.60
2008,05,23,08,56,12.60
2008,05,23,08,57,12.60
2008,05,23,08,58,12.60
2008,05,23,08,59,12.60
2008,05,23,09,00,12.60
2008,05,23,09,01,12.60
2008,05,23,09,02,12.60
2008,05,23,09,03,12.60
2008,05,23,09,04,12.70
2008,05,23,09,05,12.70
2008,05,23,09,06,12.70
2008,05,23,09,07,12.70
2008,05,23,09,08,12.60
2008,05,23,09,09,12.50
2008,05,23,09,10,12.40
2008,05,23,09,11,12.40
2008,05,23,09,12,12.40
2008,05,23,09,13,12.30
2008,05,23,09,14,12.40
2008,05,23,09,15,12.30
2008,05,23,09,16,12.30
2008,05,23,09,17,12.40
2008,05,23,09,18,12.40
2008,05,23,09,19,12.30
2008,05,23,09,20,12.30
2008,05,23,09,21,12.30
2008,05,23,09,22,12.30
2008,05,23,09,23,12.40
2008,05,23,09,24,12.40
2008,05,23,09,25,12.50
2008,05,23,09,26,12.50
2008,05,23,09,27,12.40
2008,05,23,09,28,12.40
2008,05,23,09,29,12.50
2008,05,23,09,30,12.50
2008,05,23,09,31,12.60
2008,05,23,09,32,12.60
2008,05,23,09,33,12.60
2008,05,23,09,34,12.70
2008,05,23,09,35,12.70
2008,05,23,09,36,12.70
2008,05,23,09,37,12.70
2008,05,23,09,38,12.80
2008,05,23,09,39,12.80
2008,05,23,09,40,12.80
2008,05,23,09,41,12.90
2008,05,23,09,42,12.90
2008,05,23,09,43,13.00
2008,05,23,09,44,13.10
2008,05,23,09,45,13.20
2008,05,23,09,46,13.20
2008,05,23,09,47,13.30
2008,05,23,09,48,13.30
2008,05,23,09,49,13.40
2008,05,23,09,50,13.40
2008,05,23,09,51,13.50
2008,05,23,09,52,13.50
2008,05,23,09,53,13.50
2008,05,23,09,54,13.50
2008,05,23,09,55,13.50
2008,05,23,09,56,13.40
2008,05,23,09,57,13.50
2008,05,23,09,58,13.50
2008,05,23,09,59,13.50
2008,05,23,10,00,13.40
2008,05,23,10,01,13.30
2008,05,23,10,02,13.30
2008,05,23,10,03,13.40
2008,05,23,10,04,13.40
2008,05,23,10,05,13.50
2008,05,23,10,06,13.50
2008,05,23,10,07,13.60
2008,05,23,10,08,13.50
2008,05,23,10,09,13.50
2008,05,23,10,10,13.60
2008,05,23,10,11,13.60
2008,05,23,10,12,13.60
2008,05,23,10,13,13.70
2008,05,23,10,14,13.70
2008,05,23,10,15,13.70
2008,05,23,10,16,13.70
2008,05,23,10,17,13.70
2008,05,23,10,18,13.80
2008,05,23,10,19,13.80
2008,05,23,10,20,13.70
2008,05,23,10,21,13.70
2008,05,23,10,22,13.60
2008,05,23,10,23,13.50
2008,05,23,10,24,13.50
2008,05,23,10,25,13.40
2008,05,23,10,26,13.40
2008,05,23,10,27,13.50
2008,05,23,10,28,13.50
2008,05,23,10,29,13.60
2008,05,23,10,30,13.50
2008,05,23,10,31,13.50
2008,05,23,10,32,13.40
2008,05,23,10,33,13.30
2008,05,23,10,34,13.20
2008,05,23,10,35,13.20
2008,05,23,10,36,13.10
2008,05,23,10,37,13.10
2008,05,23,10,38,13.10
2008,05,23,10,39,13.10
2008,05,23,10,40,13.10
2008,05,23,10,41,13.10
2008,05,23,10,42,13.10
2008,05,23,10,43,13.10
2008,05,23,10,44,13.20
2008,05,23,10,45,13.20
2008,05,23,10,46,13.20
2008,05,23,10,47,13.30
2008,05,23,10,48,13.30
2008,05,23,10,49,13.40
2008,05,23,10,50,13.40
2008,05,23,10,51,13.40
2008,05,23,10,52,13.40
2008,05,23,10,53,13.40
2008,05,23,10,54,13.50
2008,05,23,10,55,13.50
2008,05,23,10,56,13.50
2008,05,23,10,57,13.50
2008,05,23,10,58,13.50
2008,05,23,10,59,13.50
2008,05,23,11,00,13.60
2008,05,23,11,01,13.60
2008,05,23,11,02,13.60
2008,05,23,11,03,13.70
2008,05,23,11,04,13.70
2008,05,23,11,05,13.80
2008,05,23,11,06,13.80
2008,05,23,11,07,13.80
2008,05,23,11,08,13.80
2008,05,23,11,09,13.90
2008,05,23,11,10,13.90
2008,05,23,11,11,13.90
2008,05,23,11,12,13.90
2008,05,23,11,13,14.00
2008,05,23,11,14,14.00
2008,05,23,11,15,14.00
2008,05,23,11,16,13.90
2008,05,23,11,17,13.90
2008,05,23,11,18,13.90
2008,05,23,11,19,13.80
2008,05,23,11,20,13.80
2008,05,23,11,21,13.80
2008,05,23,11,22,13.90
2008,05,23,11,23,13.90
2008,05,23,11,24,14.00
2008,05,23,11,25,14.10
2008,05,23,11,26,14.20
2008,05,23,11,27,14.30
2008,05,23,11,28,14.40
2008,05,23,11,29,14.50
2008,05,23,11,30,14.60
2008,05,23,11,31,14.80
2008,05,23,11,32,15.00
2008,05,23,11,33,15.00
2008,05,23,11,34,15.00
2008,05,23,11,35,15.00
2008,05,23,11,36,15.00
2008,05,23,11,37,15.00
2008,05,23,11,38,15.00
2008,05,23,11,39,15.00
2008,05,23,11,40,15.00
2008,05,23,11,41,15.00
2008,05,23,11,42,15.00
2008,05,23,11,43,15.00
2008,05,23,11,44,15.20
2008,05,23,11,45,15.30
2008,05,23,11,46,15.20
2008,05,23,11,47,15.10
2008,05,23,11,48,15.00
2008,05,23,11,49,15.00
2008,05,23,11,50,15.00
2008,05,23,11,51,15.00
2008,05,23,11,52,15.00
2008,05,23,11,53,15.00
2008,05,23,11,54,14.80
2008,05,23,11,55,14.70
2008,05,23,11,56,14.60
2008,05,23,11,57,14.70
2008,05,23,11,58,14.70
2008,05,23,11,59,14.80
2008,05,23,12,00,14.90
2008,05,23,12,01,15.00
2008,05,23,12,02,15.00
2008,05,23,12,03,15.00
2008,05,23,12,04,15.00
2008,05,23,12,05,15.00
2008,05,23,12,06,15.10
2008,05,23,12,07,15.00
2008,05,23,12,08,15.00
2008,05,23,12,09,15.00
2008,05,23,12,10,15.10
2008,05,23,12,11,15.20
2008,05,23,12,12,15.30
2008,05,23,12,13,15.30
2008,05,23,12,14,15.30
2008,05,23,12,15,15.30
2008,05,23,12,16,15.30
2008,05,23,12,17,15.30
2008,05,23,12,18,15.30
2008,05,23,12,19,15.20
2008,05,23,12,20,15.10
2008,05,23,12,21,15.10
2008,05,23,12,22,15.10
2008,05,23,12,23,15.10
2008,05,23,12,24,15.20
2008,05,23,12,25,15.20
2008,05,23,12,26,15.30
2008,05,23,12,27,15.30
2008,05,23,12,28,15.20
2008,05,23,12,29,15.10
2008,05,23,12,30,15.00
2008,05,23,12,31,15.00
2008,05,23,12,32,15.00
2008,05,23,12,33,15.00
2008,05,23,12,34,15.00
2008,05,23,12,35,15.20
2008,05,23,12,36,15.30
2008,05,23,12,37,15.50
2008,05,23,12,38,15.60
2008,05,23,12,39,15.70
2008,05,23,12,40,15.70
2008,05,23,12,41,15.70
2008,05,23,12,42,15.70
2008,05,23,12,43,15.80
2008,05,23,12,44,15.90
2008,05,23,12,45,15.90
2008,05,23,12,46,16.00
2008,05,23,12,47,16.00
2008,05,23,12,48,16.10
2008,05,23,12,49,16.10
2008,05,23,12,50,16.20
2008,05,23,12,51,16.30
2008,05,23,12,52,16.30
2008,05,23,12,53,16.30
2008,05,23,12,54,16.30
2008,05,23,12,55,16.30
2008,05,23,12,56,16.30
2008,05,23,12,57,16.40
2008,05,23,12,58,16.40
2008,05,23,12,59,16.40
2008,05,23,13,00,16.40
2008,05,23,13,01,16.40
2008,05,23,13,02,16.40
2008,05,23,13,03,16.40
2008,05,23,13,04,16.30
2008,05,23,13,05,16.30
2008,05,23,13,06,16.20
2008,05,23,13,07,16.30
2008,05,23,13,08,16.20
2008,05,23,13,09,16.20
2008,05,23,13,10,16.20
2008,05,23,13,11,16.20
2008,05,23,13,12,16.30
2008,05,23,13,13,16.30
2008,05,23,13,14,16.30
2008,05,23,13,15,16.20
2008,05,23,13,16,16.20
2008,05,23,13,17,16.20
2008,05,23,13,18,16.20
2008,05,23,13,19,16.30
2008,05,23,13,20,16.40
2008,05,23,13,21,16.40
2008,05,23,13,22,16.40
2008,05,23,13,23,16.40
2008,05,23,13,24,16.40
2008,05,23,13,25,16.40
2008,05,23,13,26,16.50
2008,05,23,13,27,16.40
2008,05,23,13,28,16.30
2008,05,23,13,29,16.30
2008,05,23,13,30,16.30
2008,05,23,13,31,16.30
2008,05,23,13,32,16.20
2008,05,23,13,33,16.30
2008,05,23,13,34,16.30
2008,05,23,13,35,16.40
2008,05,23,13,36,16.40
2008,05,23,13,37,16.40
2008,05,23,13,38,16.50
2008,05,23,13,39,16.60
2008,05,23,13,40,16.70
2008,05,23,13,41,16.70
2008,05,23,13,42,16.70
2008,05,23,13,43,16.80
2008,05,23,13,44,16.80
2008,05,23,13,45,16.80
2008,05,23,13,46,16.80
2008,05,23,13,47,16.80
2008,05,23,13,48,16.80
2008,05,23,13,49,16.80
2008,05,23,13,50,16.80
2008,05,23,13,51,16.80
2008,05,23,13,52,16.80
2008,05,23,13,53,16.80
2008,05,23,13,54,16.90
2008,05,23,13,55,17.00
2008,05,23,13,56,17.00
2008,05,23,13,57,17.10
2008,05,23,13,58,17.10
2008,05,23,13,59,17.10
2008,05,23,14,00,17.10
2008,05,23,14,01,17.10
2008,05,23,14,02,17.10
2008,05,23,14,03,17.00
2008,05,23,14,04,16.90
2008,05,23,14,05,17.00
2008,05,23,14,06,17.00
2008,05,23,14,07,17.10
2008,05,23,14,08,17.10
2008,05,23,14,09,17.20
2008,05,23,14,10,17.10
2008,05,23,14,11,17.00
2008,05,23,14,12,17.00
2008,05,23,14,13,17.00
2008,05,23,14,14,17.00
2008,05,23,14,15,17.00
2008,05,23,14,16,17.10
2008,05,23,14,17,17.00
2008,05,23,14,18,17.00
2008,05,23,14,19,16.90
2008,05,23,14,20,16.90
2008,05,23,14,21,16.90
2008,05,23,14,22,17.00
2008,05,23,14,23,17.00
2008,05,23,14,24,17.10
2008,05,23,14,25,17.10
2008,05,23,14,26,17.20
2008,05,23,14,27,17.30
2008,05,23,14,28,17.20
2008,05,23,14,29,17.20
2008,05,23,14,30,17.20
2008,05,23,14,31,17.30
2008,05,23,14,32,17.40
2008,05,23,14,33,17.40
2008,05,23,14,34,17.50
2008,05,23,14,35,17.50
2008,05,23,14,36,17.60
2008,05,23,14,37,17.60
2008,05,23,14,38,17.60
2008,05,23,14,39,17.70
2008,05,23,14,40,17.60
2008,05,23,14,41,17.60
2008,05,23,14,42,17.50
2008,05,23,14,43,17.50
2008,05,23,14,44,17.50
2008,05,23,14,45,17.50
2008,05,23,14,46,17.50
2008,05,23,14,47,17.60
2008,05,23,14,48,17.60
2008,05,23,14,49,17.60
2008,05,23,14,50,17.60
2008,05,23,14,51,17.40
2008,05,23,14,52,17.40
2008,05,23,14,53,17.30
2008,05,23,14,54,17.30
2008,05,23,14,55,17.30
2008,05,23,14,56,17.20
2008,05,23,14,57,17.20
2008,05,23,14,58,17.20
2008,05,23,14,59,17.20
2008,05,23,15,00,17.20
2008,05,23,15,01,17.20
2008,05,23,15,02,17.20
2008,05,23,15,03,17.10
2008,05,23,15,04,17.10
2008,05,23,15,05,17.20
2008,05,23,15,06,17.20
2008,05,23,15,07,17.20
2008,05,23,15,08,17.20
2008,05,23,15,09,17.20
2008,05,23,15,10,17.20
2008,05,23,15,11,17.10
2008,05,23,15,12,17.10
2008,05,23,15,13,17.10
2008,05,23,15,14,17.10
2008,05,23,15,15,17.10
2008,05,23,15,16,17.20
2008,05,23,15,17,17.20
2008,05,23,15,18,17.20
2008,05,23,15,19,17.20
2008,05,23,15,20,17.20
2008,05,23,15,21,17.30
2008,05,23,15,22,17.30
2008,05,23,15,23,17.30
2008,05,23,15,24,17.40
2008,05,23,15,25,17.40
2008,05,23,15,26,17.40
2008,05,23,15,27,17.40
2008,05,23,15,28,17.40
2008,05,23,15,29,17.40
2008,05,23,15,30,17.40
2008,05,23,15,31,17.40
2008,05,23,15,32,17.30
2008,05,23,15,33,17.30
2008,05,23,15,34,17.30
2008,05,23,15,35,17.30
2008,05,23,15,36,17.30
2008,05,23,15,37,17.40
2008,05,23,15,38,17.40
2008,05,23,15,39,17.40
2008,05,23,15,40,17.40
2008,05,23,15,41,17.40
2008,05,23,15,42,17.40
2008,05,23,15,43,17.40
2008,05,23,15,44,17.40
2008,05,23,15,45,17.40
2008,05,23,15,46,17.50
2008,05,23,15,47,17.50
2008,05,23,15,48,17.50
2008,05,23,15,49,17.40
2008,05,23,15,50,17.40
2008,05,23,15,51,17.40
2008,05,23,15,52,17.30
2008,05,23,15,53,17.30
2008,05,23,15,54,17.30
2008,05,23,15,55,17.20
2008,05,23,15,56,17.20
2008,05,23,15,57,17.10
2008,05,23,15,58,17.10
2008,05,23,15,59,17.10
2008,05,23,16,00,17.10
2008,05,23,16,01,17.10
2008,05,23,16,02,17.00
2008,05,23,16,03,16.90
2008,05,23,16,04,16.80
2008,05,23,16,05,16.70
2008,05,23,16,06,16.60
2008,05,23,16,07,16.50
2008,05,23,16,08,16.30
2008,05,23,16,09,16.20
2008,05,23,16,10,16.10
2008,05,23,16,11,16.00
2008,05,23,16,12,15.90
2008,05,23,16,13,15.80
2008,05,23,16,14,15.80
2008,05,23,16,15,15.70
2008,05,23,16,16,15.80
2008,05,23,16,17,15.70
2008,05,23,16,18,15.70
2008,05,23,16,19,15.60
2008,05,23,16,20,15.60
2008,05,23,16,21,15.60
2008,05,23,16,22,15.60
2008,05,23,16,23,15.60
2008,05,23,16,24,15.50
2008,05,23,16,25,15.50
2008,05,23,16,26,15.50
2008,05,23,16,27,15.50
2008,05,23,16,28,15.50
2008,05,23,16,29,15.50
2008,05,23,16,30,15.40
2008,05,23,16,31,15.30
2008,05,23,16,32,15.20
2008,05,23,16,33,15.20
2008,05,23,16,34,15.20
2008,05,23,16,35,15.20
2008,05,23,16,36,15.20
2008,05,23,16,37,15.20
2008,05,23,16,38,15.20
2008,05,23,16,39,15.20
2008,05,23,16,40,15.20
2008,05,23,16,41,15.20
2008,05,23,16,42,15.20
2008,05,23,16,43,15.20
2008,05,23,16,44,15.20
2008,05,23,16,45,15.20
2008,05,23,16,46,15.20
2008,05,23,16,47,15.20
2008,05,23,16,48,15.20
2008,05,23,16,49,15.30
2008,05,23,16,50,15.30
2008,05,23,16,51,15.40
2008,05,23,16,52,15.40
2008,05,23,16,53,15.50
2008,05,23,16,54,15.50
2008,05,23,16,55,15.50
2008,05,23,16,56,15.60
2008,05,23,16,57,15.60
2008,05,23,16,58,15.60
2008,05,23,16,59,15.60
2008,05,23,17,00,15.60
2008,05,23,17,01,15.60
2008,05,23,17,02,15.60
2008,05,23,17,03,15.60
2008,05,23,17,04,15.60
2008,05,23,17,05,15.70
2008,05,23,17,06,15.70
2008,05,23,17,07,15.70
2008,05,23,17,08,15.70
2008,05,23,17,09,15.70
2008,05,23,17,10,15.70
2008,05,23,17,11,15.60
2008,05,23,17,12,15.60
2008,05,23,17,13,15.60
2008,05,23,17,14,15.60
2008,05,23,17,15,15.50
2008,05,23,17,16,15.60
2008,05,23,17,17,15.60
2008,05,23,17,18,15.60
2008,05,23,17,19,15.60
2008,05,23,17,20,15.60
2008,05,23,17,21,15.60
2008,05,23,17,22,15.60
2008,05,23,17,23,15.70
2008,05,23,17,24,15.70
2008,05,23,17,25,15.70
2008,05,23,17,26,15.70
2008,05,23,17,27,15.70
2008,05,23,17,28,15.70
2008,05,23,17,29,15.70
2008,05,23,17,30,15.70
2008,05,23,17,31,15.70
2008,05,23,17,32,15.70
2008,05,23,17,33,15.70
2008,05,23,17,34,15.70
2008,05,23,17,35,15.70
2008,05,23,17,36,15.70
2008,05,23,17,37,15.70
2008,05,23,17,38,15.70
2008,05,23,17,39,15.70